Flag for U.S.A. Weather past 2 weeks in Sioux City, Iowa, U.S.A.

Now
77 °F

Sunny.


Feels Like: 79 °F
Forecast: 69 / 91 °F
Wind: 10 mph from Southwest

Location: Sioux Gateway Airport

Current Time: Aug 1, 2015 at 8:20:01 PM

Latest Report: Aug 1, 2015 at 7:52 PM


Visibility: 10 mi

Pressure: 29.86 "Hg

Humidity: 69%

Dew point: 66 °F

Location of Sioux CityLocation

Historic Weather in Sioux City — Graph

°F

Sioux City temperature yesterday

Maximum temperature yesterday: 87 °F (at 3:52 PM)
Minimum temperature yesterday: 65 °F (at 6:52 AM)
Average temperature yesterday: 77 °F

Past Weeks' High & Low Weather Summary

 TemperatureHumidityPressure
High93 °F (Jul 24, 3:52 PM)94% (Aug 1, 4:58 AM)30.16 "Hg (Aug 1, 4:58 AM)
Low58 °F (Jul 29, 5:52 AM)40% (Jul 29, 1:52 PM)29.61 "Hg (Jul 17, 7:52 PM)
Average77 °F72%29.93 "Hg
* Reported Jul 17 6:52 PM — Aug 1 6:52 PM, Sioux City, Weather by CustomWeather, © 2015

Note: Actual official high and low records may vary slightly from our data, if they occured in-between our weather recording intervals... More about our weather records

Advertising

Sioux City weather history for previous 24 hours

 ConditionsComfort  
Time TempWeatherWind HumidityBarometerVisibility
6:52 PM
Sat, Aug 1
81 °FSunny.14 mph65%29.86 "Hg10 mi
5:52 PM82 °FSunny.12 mph63%29.87 "Hg10 mi
4:52 PM82 °FSunny.10 mph60%29.89 "Hg10 mi
3:52 PM80 °FSunny.6 mph62%29.93 "Hg10 mi
2:52 PM81 °FSunny.3 mph56%29.93 "Hg10 mi
1:52 PM80 °FSunny.5 mph62%29.96 "Hg10 mi
12:52 PM81 °FSunny.9 mph60%29.99 "Hg10 mi
11:52 AM81 °FSunny.7 mph60%29.98 "Hg10 mi
10:52 AM78 °FSunny.10 mph62%30.00 "Hg10 mi
9:52 AM75 °FSunny.3 mph74%30.01 "Hg10 mi
8:52 AM69 °FSunny.No wind84%30.01 "Hg10 mi
7:52 AM67 °FSunny.3 mph90%30.02 "Hg10 mi
6:52 AM65 °FFog.3 mph94%30.01 "Hg0 mi
5:52 AM62 °FFog.3 mph90%29.99 "Hg1 mi
4:58 AM64 °FFog.3 mph94%30.03 "Hg1 mi
3:52 AM68 °FClear.No wind87%30.01 "Hg9 mi
2:52 AM68 °FClear.No wind87%30.03 "Hg10 mi
1:52 AM69 °FClear.5 mph84%30.05 "Hg10 mi
12:52 AM69 °FClear.3 mph87%30.06 "Hg10 mi
11:52 PM
Fri, Jul 31
73 °FClear.5 mph79%30.06 "Hg10 mi
10:52 PM75 °FClear.7 mph74%30.05 "Hg10 mi
9:52 PM76 °FClear.5 mph74%30.03 "Hg10 mi
8:52 PM80 °FSunny.8 mph67%30.01 "Hg10 mi
Weather by CustomWeather, © 2015

See weather overviewHow to use our weather pages